GW4305 Weather Reports


Display with metric or nautical units.
time (UTC)temp
F
wind
direction
speed
MPH
gust
MPH
rain 1hr
in
rain 24hr
in
rain mn
in
humidity
%
barometer
mb
20260504050317 54 275 1.0 2.0 0.00 0.00 0.00 43 1015.5
20260504045814 54 174 1.0 5.0 0.00 0.00 0.00 42 1015.6
20260504045314 54 173 3.0 6.0 0.00 0.00 0.00 41 1015.3
20260504044811 54 208 1.0 3.0 0.00 0.00 0.00 41 1015.3
20260504044309 54 280 1.0 3.0 0.00 0.00 0.00 40 1015.2
20260504043806 54 327 2.0 3.0 0.00 0.00 0.00 39 1015.5
20260504043303 54 74 1.0 1.0 0.00 0.00 0.00 41 1015.1
20260504042800 54 344 1.0 2.0 0.00 0.00 0.00 41 1015.1
20260504042257 55 332 3.0 5.0 0.00 0.00 0.00 38 1014.8
20260504041753 55 244 0.0 2.0 0.00 0.00 0.00 37 1015.1
20260504041249 55 328 1.0 6.0 0.00 0.00 0.00 37 1014.8
20260504040745 55 280 2.0 5.0 0.00 0.00 0.00 36 1014.7
20260504040243 55 194 2.0 5.0 0.00 0.00 0.00 36 1014.6
20260504035739 56 120 2.0 5.0 0.00 0.00 0.00 36 1014.4
20260504035236 56 338 3.0 8.0 0.00 0.00 0.00 35 1014.3
20260504034734 56 309 3.0 10.0 0.00 0.00 0.00 36 1014.1
20260504034231 56 142 1.0 2.0 0.00 0.00 0.00 35 1014.2
20260504033728 57 354 2.0 5.0 0.00 0.00 0.00 35 1013.7
20260504033226 57 159 2.0 5.0 0.00 0.00 0.00 35 1013.6
20260504032717 57 186 3.0 9.0 0.00 0.00 0.00 35 1013.5
20260504032215 57 186 0.0 6.0 0.00 0.00 0.00 36 1013.3
20260504031711 57 153 1.0 1.0 0.00 0.00 0.00 36 1013.0
20260504031208 57 98 1.0 3.0 0.00 0.00 0.00 35 1013.0
20260504030704 57 239 1.0 7.0 0.00 0.00 0.00 35 1012.7
20260504030202 57 82 3.0 6.0 0.00 0.00 0.00 35 1012.6
20260504025658 57 81 0.0 2.0 0.00 0.00 0.00 35 1012.4
20260504025155 58 139 3.0 5.0 0.00 0.00 0.00 35 1012.5
20260504024652 58 225 0.0 2.0 0.00 0.00 0.00 35 1012.4
20260504024148 58 87 0.0 2.0 0.00 0.00 0.00 35 1012.3
20260504023645 58 337 0.0 5.0 0.00 0.00 0.00 35 1012.2
20260504023141 58 173 2.0 5.0 0.00 0.00 0.00 35 1012.2
20260504022638 59 138 2.0 3.0 0.00 0.00 0.00 35 1012.3
20260504022133 59 113 2.0 5.0 0.00 0.00 0.00 34 1011.9
20260504021632 59 268 2.0 6.0 0.00 0.00 0.00 34 1011.9
20260504021128 60 38 1.0 7.0 0.00 0.00 0.00 34 1011.7
20260504020625 60 89 3.0 6.0 0.00 0.00 0.00 33 1011.7
20260504020121 61 318 2.0 5.0 0.00 0.00 0.00 33 1011.6
20260504015618 62 33 1.0 8.0 0.00 0.00 0.00 33 1011.3
20260504015114 63 258 3.0 7.0 0.00 0.00 0.00 33 1011.1
20260504014610 63 16 3.0 5.0 0.00 0.00 0.00 32 1011.1
20260504014107 63 127 2.0 3.0 0.00 0.00 0.00 32 1010.8
20260504013605 64 256 2.0 6.0 0.00 0.00 0.00 32 1010.8
20260504013101 64 48 1.0 5.0 0.00 0.00 0.00 32 1010.8
20260504012559 65 154 2.0 5.0 0.00 0.00 0.00 32 1010.7
20260504012057 65 207 1.0 3.0 0.00 0.00 0.00 32 1010.6
20260504011554 66 200 0.0 2.0 0.00 0.00 0.00 32 1010.4
20260504011049 66 326 0.0 3.0 0.00 0.00 0.00 31 1010.4
20260504010545 66 244 2.0 3.0 0.00 0.00 0.00 31 1010.5
20260504010042 66 275 2.0 5.0 0.00 0.00 0.00 32 1010.4
20260504005538 66 126 1.0 2.0 0.00 0.00 0.00 31 1010.3
20260504005036 67 278 2.0 3.0 0.00 0.00 0.00 31 1010.3
20260504004534 67 278 1.0 3.0 0.00 0.00 0.00 31 1010.1
20260504004030 67 262 1.0 3.0 0.00 0.00 0.00 31 1010.1
20260504003526 67 37 1.0 2.0 0.00 0.00 0.00 31 1010.3
20260504003023 67 330 0.0 2.0 0.00 0.00 0.00 32 1010.1
20260504002520 67 343 1.0 6.0 0.00 0.00 0.00 30 1009.9
20260504002018 68 281 1.0 3.0 0.00 0.00 0.00 29 1009.8
20260504001515 68 353 1.0 3.0 0.00 0.00 0.00 29 1009.9
20260504001011 68 257 1.0 6.0 0.00 0.00 0.00 29 1009.8
20260504000508 68 287 1.0 5.0 0.00 0.00 0.00 29 1009.6
20260504000005 69 84 1.0 3.0 0.00 0.00 0.00 28 1009.8
20260503235504 70 9 2.0 6.0 0.00 0.00 0.00 28 1009.7
20260503235000 70 279 1.0 3.0 0.00 0.00 0.00 28 1009.5
20260503234457 70 206 3.0 6.0 0.00 0.00 0.00 28 1009.3
20260503233955 69 207 1.0 3.0 0.00 0.00 0.00 29 1009.5
20260503233451 69 239 1.0 10.0 0.00 0.00 0.00 29 1009.5
20260503232948 69 224 3.0 8.0 0.00 0.00 0.00 29 1009.4
20260503232445 71 179 3.0 3.0 0.00 0.00 0.00 28 1009.2
20260503231943 71 118 1.0 3.0 0.00 0.00 0.00 28 1009.3
20260503231440 71 354 3.0 7.0 0.00 0.00 0.00 27 1009.2
20260503230936 71 217 3.0 8.0 0.00 0.00 0.00 27 1009.2
20260503230433 73 46 3.0 6.0 0.00 0.00 0.00 25 1009.2
20260503225931 74 278 2.0 3.0 0.00 0.00 0.00 23 1008.9
20260503225427 73 274 0.0 3.0 0.00 0.00 0.00 24 1008.9
20260503224923 72 159 2.0 9.0 0.00 0.00 0.00 26 1008.8
20260503224420 72 353 1.0 8.0 0.00 0.00 0.00 25 1008.8
20260503223918 72 102 5.0 7.0 0.00 0.00 0.00 25 1009.1
20260503223416 73 138 3.0 5.0 0.00 0.00 0.00 25 1008.9
20260503222916 74 305 1.0 5.0 0.00 0.00 0.00 24 1008.8
20260503222415 75 81 1.0 2.0 0.00 0.00 0.00 23 1008.9
20260503221913 75 68 3.0 5.0 0.00 0.00 0.00 23 1009.1
20260503221411 75 106 0.0 9.0 0.00 0.00 0.00 24 1009.1
20260503220907 73 13 3.0 3.0 0.00 0.00 0.00 24 1009.1
20260503220404 72 260 2.0 3.0 0.00 0.00 0.00 26 1009.1
20260503215900 72 172 4.0 7.0 0.00 0.00 0.00 24 1008.9
20260503215358 73 274 2.0 8.0 0.00 0.00 0.00 26 1009.1
20260503214855 73 27 3.0 9.0 0.00 0.00 0.00 24 1008.9
20260503214352 72 138 1.0 6.0 0.00 0.00 0.00 26 1009.1
20260503213850 73 74 4.0 8.0 0.00 0.00 0.00 24 1008.9
20260503213347 74 159 3.0 5.0 0.00 0.00 0.00 24 1009.1
20260503212844 74 125 3.0 7.0 0.00 0.00 0.00 23 1008.8
20260503212342 74 119 4.0 8.0 0.00 0.00 0.00 24 1008.8
20260503211839 76 254 2.0 3.0 0.00 0.00 0.00 20 1008.8
20260503211336 78 22 1.0 3.0 0.00 0.00 0.00 20 1008.9
20260503210831 77 125 0.0 3.0 0.00 0.00 0.00 21 1009.2
20260503210328 78 114 1.0 2.0 0.00 0.00 0.00 20 1009.2
20260503205823 76 275 0.0 7.0 0.00 0.00 0.00 21 1009.3
20260503205320 77 132 3.0 6.0 0.00 0.00 0.00 20 1009.2
20260503204817 78 338 3.0 6.0 0.00 0.00 0.00 19 1009.5
20260503204314 78 278 0.0 3.0 0.00 0.00 0.00 19 1009.5
20260503203811 78 118 0.0 2.0 0.00 0.00 0.00 23 1009.7
20260503203309 77 311 1.0 3.0 0.00 0.00 0.00 18 1009.7
20260503202805 78 242 1.0 3.0 0.00 0.00 0.00 20 1009.8
20260503202304 76 170 1.0 2.0 0.00 0.00 0.00 21 1009.8
20260503201801 76 215 2.0 3.0 0.00 0.00 0.00 21 1009.9
20260503201258 76 247 3.0 3.0 0.00 0.00 0.00 19 1010.1
20260503200755 76 255 1.0 3.0 0.00 0.00 0.00 19 1010.1
20260503200251 76 278 1.0 2.0 0.00 0.00 0.00 19 1010.2
20260503195748 75 236 1.0 2.0 0.00 0.00 0.00 20 1010.4
20260503195245 75 261 2.0 7.0 0.00 0.00 0.00 21 1010.3
20260503194738 74 247 1.0 2.0 0.00 0.00 0.00 21 1010.3
20260503194233 74 276 0.0 2.0 0.00 0.00 0.00 21 1010.4
20260503193729 76 196 1.0 2.0 0.00 0.00 0.00 20 1010.7
20260503193226 75 233 1.0 6.0 0.00 0.00 0.00 20 1010.5
20260503192721 74 320 0.0 2.0 0.00 0.00 0.00 21 1010.6
20260503192216 71 104 1.0 5.0 0.00 0.00 0.00 23 1010.7
20260503191713 74 161 0.0 1.0 0.00 0.00 0.00 23 1010.9
20260503191211 74 261 1.0 2.0 0.00 0.00 0.00 22 1011.1
20260503190707 73 250 1.0 2.0 0.00 0.00 0.00 23 1011.3
20260503190204 72 271 1.0 2.0 0.00 0.00 0.00 23 1011.2
20260503185702 73 268 0.0 2.0 0.00 0.00 0.00 23 1011.2
20260503185156 72 245 2.0 2.0 0.00 0.00 0.00 23 1011.4
20260503184652 73 274 2.0 5.0 0.00 0.00 0.00 22 1011.5
20260503184148 73 274 1.0 1.0 0.00 0.00 0.00 23 1011.5
20260503183644 73 299 1.0 3.0 0.00 0.00 0.00 23 1011.4
20260503183142 72 198 1.0 1.0 0.00 0.00 0.00 25 1011.6
20260503182640 72 265 1.0 1.0 0.00 0.00 0.00 24 1011.7
20260503182139 72 266 0.0 1.0 0.00 0.00 0.00 24 1011.7
20260503181635 72 176 3.0 3.0 0.00 0.00 0.00 24 1011.6
20260503181132 71 233 2.0 3.0 0.00 0.00 0.00 25 1011.8
20260503180629 71 247 0.0 2.0 0.00 0.00 0.00 24 1012.1
20260503180126 71 231 1.0 3.0 0.00 0.00 0.00 25 1012.1
20260503175622 71 53 0.0 5.0 0.00 0.00 0.00 24 1012.2
20260503175120 70 99 2.0 3.0 0.00 0.00 0.00 26 1012.5
20260503174616 71 279 2.0 5.0 0.00 0.00 0.00 25 1012.3
20260503174114 71 186 1.0 2.0 0.00 0.00 0.00 25 1012.2
20260503173609 70 175 1.0 2.0 0.00 0.00 0.00 25 1012.5
20260503173106 71 222 3.0 5.0 0.00 0.00 0.00 24 1012.4
20260503172602 71 236 1.0 6.0 0.00 0.00 0.00 25 1012.4
20260503172059 71 216 0.0 2.0 0.00 0.00 0.00 24 1012.5
20260503171555 71 56 1.0 2.0 0.00 0.00 0.00 24 1012.5
20260503171053 70 299 1.0 2.0 0.00 0.00 0.00 24 1012.4
20260503170544 71 276 1.0 3.0 0.00 0.00 0.00 24 1012.6
20260503150931 60 263 0.0 1.0 0.00 0.00 0.00 31 1013.2
20260503150427 58 268 0.0 1.0 0.00 0.00 0.00 32 1013.1
20260503131320 46 311 0.0 2.0 0.00 0.00 0.00 45 1013.5
20260503130818 46 262 0.0 1.0 0.00 0.00 0.00 45 1013.5
20260503130315 45 268 0.0 1.0 0.00 0.00 0.00 46 1013.3
20260503110709 45 269 0.0 1.0 0.00 0.00 0.00 46 1013.8
20260503110206 45 277 1.0 2.0 0.00 0.00 0.00 46 1013.8
20260503100132 45 262 1.0 1.0 0.00 0.00 0.00 47 1013.7
20260503081516 49 281 0.0 1.0 0.00 0.00 0.00 41 1013.6
20260503081013 49 270 1.0 1.0 0.00 0.00 0.00 41 1013.8
20260503080509 49 189 0.0 2.0 0.00 0.00 0.00 41 1013.7